Regional Weather Roundup
Issued by NWS Northern Indiana

Home | Current Version | Previous Version | Graphics & Text | Print | Product List | Glossary On
Versions: 1 2 3 4 5 6 7 8 9 10 11 12 13 14 15 16 17 18 19 20 21 22 23 24 25 26 27 28 29 30 31 32 33 34 35 36 37 38 39 40 41 42 43 44 45 46 47 48 49 50
000
ASUS43 KIWX 182010
RWRIWX

KIWX WEATHER ROUNDUP
NATIONAL WEATHER SERVICE NORTHERN INDIANA
400 PM EDT FRI APR 18 2014

NOTE: "FAIR" INDICATES FEW OR NO CLOUDS BELOW 12,000 FEET WITH NO
SIGNIFICANT WEATHER AND/OR OBSTRUCTIONS TO VISIBILITY.

* THESE STATIONS ARE NOT UNDER NWS QUALITY CONTROL. THEY ALSO MAY NOT
  REPORT WEATHER SUCH AS PRECIPITATION OR FOG.

INZ001>027-182100-
NORTHERN INDIANA

CITY           SKY/WX    TMP DP  RH WIND       PRES   REMARKS
GARY*          MOSUNNY   45  36  70 NE9       30.36F
VALPARAISO     SUNNY     53  36  52 N9        30.32F
MICHIGAN CITY* SUNNY     45  32  61 NW12      30.35S
LAPORTE*       SUNNY     53  38  56 N9        30.33S
SOUTH BEND     SUNNY     59  39  47 NW14G20   30.32F
ELKHART*       SUNNY     59  36  41 W12G20    30.29F
GOSHEN         SUNNY     64  33  31 NW14      30.27S
MONTICELLO*    MOSUNNY   66  41  39 NW14      30.27S
LOGANSPORT*    MOSUNNY   64  36  34 W7        30.27F
ROCHESTER*     SUNNY     68  37  32 NW9G18    30.27F
WARSAW*        SUNNY     64  37  36 W15G21    30.26F
ANGOLA*        MOSUNNY   64  39  39 NW10      30.25F
FORT WAYNE     PTSUNNY   69  39  33 W21       30.26F
HUNTINGTON*    FAIR      66  40  37 NW8G17    30.25F
PERU/GRISSOM   SUNNY     67  42  38 W12G17    30.26F
MARION*        MOSUNNY   66  36  32 W9G18     30.26F

$$
INZ028>050-182100-
CENTRAL INDIANA

CITY           SKY/WX    TMP DP  RH WIND       PRES   REMARKS
LAFAYETTE      MOSUNNY   66  39  37 NW10G17   30.27F
KOKOMO*          N/A     66  43  42 W15       30.27S
MUNCIE*        MOSUNNY   66  39  37 NW8       30.25F
INDIANAPOLIS   PTSUNNY   68  38  33 W7        30.25F

$$
MIZ043>046-050>051-056>058-064>065-071>073-077>080-182100-
SOUTHWEST LOWER MICHIGAN

CITY           SKY/WX    TMP DP  RH WIND       PRES   REMARKS
BATTLE CREEK   MOSUNNY   62  37  39 NW17G23   30.27F
BENTON HARBOR  SUNNY     43  34  70 NW8       30.34F
COLDWATER*     SUNNY     63  31  30 W12G22    30.25F
HILLSDALE*     MOSUNNY   64  34  32 W8        30.24F
HOLLAND        SUNNY     50  35  56 NW13      30.33F
GRAND RAPIDS   MOSUNNY   59  35  40 W12       30.28F
KALAMAZOO      SUNNY     61  35  37 NW13      30.28F
STURGIS*       SUNNY     63  36  36 W13       30.26S
THREE RIVERS*  FAIR      62  36  37 NW12G20   30.27F

$$
OHZ001>008-015>018-024>025-182100-
NORTHWEST OHIO

CITY           SKY/WX    TMP DP  RH WIND       PRES   REMARKS
WAUSEON*       FAIR      66  41  39 W16G23    30.24S
DEFIANCE       PTSUNNY   68  39  34 NW14G21   30.24F
FINDLAY        PTSUNNY   67  40  37 W14       30.23F
TOLEDO EXPRESS PTSUNNY   65  38  36 W13G24    30.23F
TOLEDO METCALF MOSUNNY   67  40  37 W16       30.24F
LIMA           PTSUNNY   67  40  37 W12       30.24F

$$
&&



USA.gov is the U.S. government's official web portal to all federal, state and local government web resources and services.